DHA90 LEVC-EBLG

Flight info

Callsign DHA90
Flight time 1h 46m
Altitude 36000
Route SOPET N608 SALAS/N0450F380 N608 GIROM DCT NASEP DCT ENUPA DCT RLP DCT ROUSY M624 DIK N852 GESLO
Aircraft B738/M-SDE2E3FGHIRWXY/LB1

Departure

Time 2026-05-05 08:02
Airport Valencia Airport (LEVC)

Arrival

Time 2026-05-05 09:49
Airport Liège Airport (EBLG)
Time Latitude Longitude Altitude Speed Heading
2026-05-05 07:46 39.49368 -0.48366 206 ft 0 kts 15°
2026-05-05 07:57 39.49369 -0.48366 206 ft 0 kts 19°
2026-05-05 07:58 39.49370 -0.48357 206 ft 2 kts 103°
2026-05-05 07:58 39.49342 -0.48349 206 ft 5 kts 177°
2026-05-05 07:58 39.49294 -0.48340 205 ft 8 kts 154°
2026-05-05 07:58 39.49256 -0.48265 203 ft 11 kts 116°
2026-05-05 07:59 39.49213 -0.48161 199 ft 14 kts 117°
2026-05-05 07:59 39.49166 -0.48034 194 ft 16 kts 116°
2026-05-05 07:59 39.49111 -0.47885 187 ft 20 kts 116°
2026-05-05 07:59 39.49067 -0.47701 179 ft 23 kts 98°
2026-05-05 08:00 39.49005 -0.47501 170 ft 25 kts 119°
2026-05-05 08:00 39.48936 -0.47322 166 ft 19 kts 116°
2026-05-05 08:00 39.48833 -0.47210 162 ft 20 kts 158°
2026-05-05 08:00 39.48725 -0.47094 160 ft 20 kts 117°
2026-05-05 08:01 39.48663 -0.46934 161 ft 18 kts 115°
2026-05-05 08:01 39.48606 -0.46796 164 ft 16 kts 127°
2026-05-05 08:01 39.48515 -0.46739 163 ft 15 kts 188°
2026-05-05 08:01 39.48447 -0.46830 164 ft 15 kts 253°
2026-05-05 08:02 39.48509 -0.47056 160 ft 51 kts 295°
2026-05-05 08:02 39.48774 -0.47742 179 ft 117 kts 297°
2026-05-05 08:02 39.49216 -0.48916 240 ft 168 kts 297°
2026-05-05 08:02 39.49731 -0.50226 1000 ft 162 kts 298°
2026-05-05 08:03 39.50249 -0.51518 1702 ft 166 kts 298°
2026-05-05 08:03 39.50784 -0.52865 2244 ft 176 kts 298°
2026-05-05 08:03 39.51368 -0.54322 2717 ft 192 kts 298°
2026-05-05 08:03 39.52006 -0.55907 3239 ft 206 kts 297°
2026-05-05 08:04 39.52871 -0.57444 3745 ft 223 kts 320°
2026-05-05 08:04 39.54311 -0.58248 4355 ft 237 kts 351°
2026-05-05 08:04 39.55940 -0.58135 5197 ft 240 kts 11°
2026-05-05 08:04 39.57505 -0.57215 5739 ft 257 kts 35°
2026-05-05 08:05 39.58904 -0.55692 6257 ft 273 kts 41°
2026-05-05 08:05 39.60350 -0.53996 6809 ft 287 kts 41°
2026-05-05 08:05 39.61847 -0.52296 7558 ft 292 kts 40°
2026-05-05 08:05 39.63405 -0.50584 8315 ft 296 kts 39°
2026-05-05 08:06 39.64986 -0.48877 9015 ft 303 kts 39°
2026-05-05 08:06 39.66631 -0.47113 9767 ft 307 kts 39°
2026-05-05 08:06 39.68283 -0.45340 10343 ft 318 kts 38°
2026-05-05 08:06 39.70018 -0.43475 10757 ft 334 kts 38°
2026-05-05 08:07 39.71845 -0.41511 11309 ft 345 kts 38°
2026-05-05 08:07 39.73693 -0.39519 12007 ft 351 kts 38°
2026-05-05 08:07 39.75588 -0.37474 12662 ft 358 kts 38°
2026-05-05 08:07 39.77502 -0.35407 13396 ft 363 kts 38°
2026-05-05 08:08 39.79462 -0.33289 14101 ft 368 kts 37°
2026-05-05 08:08 39.81427 -0.31163 14813 ft 374 kts 37°
2026-05-05 08:08 39.83437 -0.28990 15573 ft 378 kts 37°
2026-05-05 08:08 39.85461 -0.26798 16225 ft 385 kts 37°
2026-05-05 08:09 39.87526 -0.24561 16921 ft 390 kts 37°
2026-05-05 08:09 39.89626 -0.22286 17564 ft 396 kts 37°
2026-05-05 08:09 39.91750 -0.19980 18232 ft 401 kts 37°
2026-05-05 08:09 39.93905 -0.17637 18908 ft 406 kts 37°
2026-05-05 08:10 39.95336 -0.16081 19303 ft 409 kts 37°
2026-05-05 08:10 39.98292 -0.12868 20118 ft 416 kts 37°
2026-05-05 08:10 40.00510 -0.10454 20708 ft 421 kts 37°
2026-05-05 08:10 40.02750 -0.08013 21276 ft 426 kts 36°
2026-05-05 08:11 40.05036 -0.05523 21868 ft 430 kts 36°
2026-05-05 08:11 40.07325 -0.03024 22433 ft 434 kts 36°
2026-05-05 08:11 40.09678 -0.00452 22960 ft 439 kts 36°
2026-05-05 08:11 40.12013 0.02103 23514 ft 443 kts 36°
2026-05-05 08:12 40.14378 0.04694 23973 ft 448 kts 36°
2026-05-05 08:12 40.16764 0.07311 24555 ft 450 kts 36°
2026-05-05 08:12 40.19189 0.09943 25022 ft 453 kts 35°
2026-05-05 08:12 40.21678 0.12428 25478 ft 455 kts 30°
2026-05-05 08:13 40.24385 0.14517 25880 ft 453 kts 19°
2026-05-05 08:13 40.27294 0.16079 26358 ft 450 kts 12°
2026-05-05 08:13 40.30280 0.17339 26817 ft 451 kts
2026-05-05 08:13 40.33275 0.18449 27306 ft 451 kts
2026-05-05 08:14 40.36308 0.19513 27738 ft 454 kts
2026-05-05 08:14 40.39397 0.20591 28167 ft 458 kts
2026-05-05 08:14 40.42488 0.21684 28572 ft 462 kts
2026-05-05 08:14 40.45558 0.22789 29002 ft 465 kts
2026-05-05 08:15 40.48682 0.23930 29393 ft 468 kts
2026-05-05 08:15 40.51862 0.25105 29801 ft 471 kts
2026-05-05 08:15 40.54994 0.26272 30154 ft 475 kts
2026-05-05 08:15 40.58187 0.27472 30528 ft 478 kts
2026-05-05 08:16 40.61368 0.28672 30952 ft 479 kts
2026-05-05 08:16 40.64584 0.29889 31225 ft 484 kts
2026-05-05 08:16 40.67811 0.31112 31667 ft 485 kts
2026-05-05 08:16 40.71077 0.32353 32034 ft 487 kts
2026-05-05 08:17 40.74332 0.33590 32326 ft 491 kts
2026-05-05 08:17 40.77628 0.34843 32688 ft 493 kts
2026-05-05 08:17 40.80937 0.36104 32984 ft 496 kts
2026-05-05 08:17 40.84290 0.37382 33346 ft 498 kts
2026-05-05 08:18 40.87694 0.38683 33729 ft 499 kts
2026-05-05 08:18 40.91045 0.39965 34106 ft 500 kts
2026-05-05 08:18 40.94415 0.41259 34626 ft 495 kts
2026-05-05 08:18 40.97731 0.42536 35066 ft 492 kts
2026-05-05 08:19 41.01054 0.43813 35440 ft 491 kts
2026-05-05 08:19 41.04354 0.45082 35800 ft 490 kts
2026-05-05 08:19 41.07617 0.46334 35916 ft 492 kts
2026-05-05 08:19 41.10918 0.47600 35933 ft 491 kts
2026-05-05 08:20 41.17471 0.50121 35931 ft 488 kts
2026-05-05 08:20 41.24022 0.52646 35930 ft 491 kts
2026-05-05 08:21 41.30580 0.55179 35948 ft 492 kts 10°
2026-05-05 08:21 41.37088 0.57702 35938 ft 489 kts 10°
2026-05-05 08:22 41.43666 0.60254 35949 ft 492 kts
2026-05-05 08:22 41.50220 0.62802 35940 ft 493 kts 10°
2026-05-05 08:23 41.56774 0.65337 35957 ft 489 kts
2026-05-05 08:23 41.63382 0.67384 35947 ft 490 kts
2026-05-05 08:24 41.70031 0.69130 35936 ft 486 kts
2026-05-05 08:24 41.76681 0.70885 35935 ft 490 kts
2026-05-05 08:25 41.82258 0.72404 35947 ft 490 kts
2026-05-05 08:25 41.90006 0.74569 35948 ft 489 kts
2026-05-05 08:26 41.96670 0.76454 35941 ft 492 kts
2026-05-05 08:26 42.03357 0.78356 35937 ft 491 kts
2026-05-05 08:27 42.10028 0.80261 35949 ft 492 kts
2026-05-05 08:27 42.16678 0.82163 35903 ft 489 kts
2026-05-05 08:28 42.23321 0.84064 35938 ft 490 kts
2026-05-05 08:28 42.29971 0.85970 35953 ft 491 kts
2026-05-05 08:29 42.36634 0.87888 35930 ft 489 kts
2026-05-05 08:30 42.46582 0.90753 35929 ft 488 kts
2026-05-05 08:30 42.53199 0.92660 35928 ft 488 kts
2026-05-05 08:31 42.59826 0.94580 35929 ft 487 kts
2026-05-05 08:31 42.66463 0.96505 35936 ft 486 kts
2026-05-05 08:32 42.73045 0.98429 35926 ft 486 kts
2026-05-05 08:32 42.79532 1.01125 35936 ft 491 kts 18°
2026-05-05 08:33 42.85755 1.05027 35940 ft 493 kts 23°
2026-05-05 08:33 42.91837 1.09319 35947 ft 492 kts 24°
2026-05-05 08:34 42.97932 1.13658 35962 ft 494 kts 24°
2026-05-05 08:34 43.03973 1.17920 35959 ft 492 kts 24°
2026-05-05 08:35 43.10063 1.22183 35963 ft 492 kts 24°
2026-05-05 08:35 43.16143 1.26428 35969 ft 491 kts 24°
2026-05-05 08:36 43.22248 1.30693 35962 ft 490 kts 24°
2026-05-05 08:36 43.28287 1.34917 35964 ft 490 kts 24°
2026-05-05 08:37 43.34339 1.39159 35961 ft 490 kts 24°
2026-05-05 08:37 43.40403 1.43420 35957 ft 489 kts 24°
2026-05-05 08:38 43.46457 1.47678 35947 ft 489 kts 24°
2026-05-05 08:38 43.52454 1.51911 35959 ft 488 kts 24°
2026-05-05 08:39 43.58510 1.56193 35959 ft 489 kts 24°
2026-05-05 08:39 43.64556 1.60476 35964 ft 489 kts 24°
2026-05-05 08:40 43.70614 1.64777 35945 ft 488 kts 25°
2026-05-05 08:40 43.76639 1.69067 35958 ft 488 kts 25°
2026-05-05 08:41 43.82651 1.73357 35943 ft 486 kts 25°
2026-05-05 08:41 43.88642 1.77641 35947 ft 485 kts 25°
2026-05-05 08:42 43.94624 1.81927 35939 ft 485 kts 26°
2026-05-05 08:42 44.00568 1.86198 35947 ft 485 kts 26°
2026-05-05 08:43 44.06540 1.90499 35953 ft 484 kts 26°
2026-05-05 08:43 44.12523 1.94818 35934 ft 485 kts 26°
2026-05-05 08:44 44.18518 1.99154 35944 ft 485 kts 26°
2026-05-05 08:44 44.24528 2.03512 35941 ft 486 kts 26°
2026-05-05 08:45 44.30486 2.07840 35946 ft 484 kts 26°
2026-05-05 08:45 44.36491 2.12216 35933 ft 483 kts 26°
2026-05-05 08:46 44.42429 2.16553 35940 ft 483 kts 26°
2026-05-05 08:46 44.48342 2.20880 35939 ft 481 kts 26°
2026-05-05 08:47 44.54245 2.25279 35935 ft 482 kts 28°
2026-05-05 08:47 44.60039 2.30030 35933 ft 483 kts 30°
2026-05-05 08:48 44.65785 2.34899 35928 ft 482 kts 30°
2026-05-05 08:48 44.68665 2.37342 36099 ft 484 kts 30°
2026-05-05 08:48 44.71520 2.39757 36073 ft 478 kts 30°
2026-05-05 08:49 44.77215 2.44555 35941 ft 478 kts 30°
2026-05-05 08:49 44.82898 2.49330 35931 ft 478 kts 30°
2026-05-05 08:50 44.88609 2.54128 35929 ft 479 kts 30°
2026-05-05 08:50 44.94315 2.58927 35923 ft 476 kts 30°
2026-05-05 08:51 45.00006 2.63725 35916 ft 478 kts 30°
2026-05-05 08:51 45.05699 2.68533 35910 ft 477 kts 31°
2026-05-05 08:52 45.11383 2.73347 35903 ft 476 kts 31°
2026-05-05 08:52 45.17070 2.78176 35900 ft 476 kts 31°
2026-05-05 08:53 45.22736 2.82996 35889 ft 475 kts 31°
2026-05-05 08:53 45.28452 2.87873 35890 ft 476 kts 31°
2026-05-05 08:54 45.34141 2.92737 35888 ft 476 kts 31°
2026-05-05 08:54 45.39806 2.97591 35887 ft 476 kts 31°
2026-05-05 08:55 45.45438 3.02429 35890 ft 475 kts 31°
2026-05-05 08:55 45.51082 3.07288 35887 ft 474 kts 31°
2026-05-05 08:56 45.56735 3.12166 35900 ft 475 kts 32°
2026-05-05 08:56 45.62384 3.17054 35897 ft 475 kts 32°
2026-05-05 08:57 45.68041 3.21959 35896 ft 474 kts 32°
2026-05-05 08:57 45.73637 3.26824 35901 ft 474 kts 32°
2026-05-05 08:58 45.79269 3.31732 35895 ft 473 kts 32°
2026-05-05 08:58 45.84887 3.36639 35896 ft 474 kts 32°
2026-05-05 08:59 45.90499 3.41551 35897 ft 474 kts 32°
2026-05-05 08:59 45.96111 3.46474 35899 ft 471 kts 32°
2026-05-05 09:00 46.01702 3.51392 35896 ft 471 kts 32°
2026-05-05 09:00 46.07266 3.56298 35893 ft 471 kts 32°
2026-05-05 09:01 46.12832 3.61216 35902 ft 470 kts 32°
2026-05-05 09:01 46.18401 3.66151 35889 ft 470 kts 33°
2026-05-05 09:02 46.23986 3.71111 35896 ft 471 kts 33°
2026-05-05 09:02 46.29561 3.76075 35890 ft 471 kts 33°
2026-05-05 09:03 46.35133 3.81048 35876 ft 471 kts 33°
2026-05-05 09:03 46.40689 3.86017 35891 ft 471 kts 33°
2026-05-05 09:04 46.46281 3.91030 35887 ft 471 kts 33°
2026-05-05 09:04 46.51835 3.96023 35888 ft 470 kts 33°
2026-05-05 09:05 46.57366 4.01007 35881 ft 471 kts 33°
2026-05-05 09:05 46.62917 4.06021 35882 ft 470 kts 34°
2026-05-05 09:06 46.68463 4.11044 35875 ft 469 kts 34°
2026-05-05 09:06 46.73997 4.16068 35876 ft 470 kts 34°
2026-05-05 09:07 46.79510 4.21083 35881 ft 469 kts 34°
2026-05-05 09:07 46.85053 4.26139 35882 ft 468 kts 34°
2026-05-05 09:08 46.90538 4.31154 35871 ft 466 kts 34°
2026-05-05 09:08 46.96046 4.36203 35872 ft 467 kts 34°
2026-05-05 09:09 47.01539 4.41250 35874 ft 467 kts 34°
2026-05-05 09:09 47.07004 4.46284 35872 ft 466 kts 34°
2026-05-05 09:10 47.12490 4.51349 35862 ft 467 kts 34°
2026-05-05 09:10 47.17958 4.56411 35889 ft 468 kts 34°
2026-05-05 09:11 47.23462 4.61519 35857 ft 467 kts 34°
2026-05-05 09:11 47.28920 4.66596 35730 ft 466 kts 35°
2026-05-05 09:12 47.34438 4.71743 35863 ft 472 kts 35°
2026-05-05 09:12 47.39957 4.76902 35883 ft 467 kts 35°
2026-05-05 09:13 47.45420 4.82021 35870 ft 469 kts 35°
2026-05-05 09:13 47.50932 4.87198 35883 ft 471 kts 35°
2026-05-05 09:14 47.56429 4.92375 35871 ft 469 kts 35°
2026-05-05 09:14 47.61957 4.97598 35869 ft 471 kts 35°
2026-05-05 09:15 47.67473 5.02818 35864 ft 472 kts 35°
2026-05-05 09:15 47.72963 5.08021 35852 ft 470 kts 35°
2026-05-05 09:16 47.78492 5.13279 35851 ft 472 kts 36°
2026-05-05 09:16 47.84005 5.18535 35862 ft 473 kts 35°
2026-05-05 09:17 47.89543 5.23671 35852 ft 473 kts 32°
2026-05-05 09:17 47.95499 5.27793 35852 ft 477 kts 23°
2026-05-05 09:18 48.01764 5.31168 35847 ft 476 kts 20°
2026-05-05 09:18 48.07990 5.34365 35854 ft 478 kts 21°
2026-05-05 09:19 48.14289 5.37647 35860 ft 479 kts 21°
2026-05-05 09:19 48.20548 5.40977 35857 ft 478 kts 21°
2026-05-05 09:20 48.26762 5.44325 35862 ft 479 kts 21°
2026-05-05 09:20 48.33014 5.47708 35854 ft 480 kts 21°
2026-05-05 09:21 48.39300 5.51122 35854 ft 480 kts 21°
2026-05-05 09:21 48.45527 5.54515 35858 ft 479 kts 21°
2026-05-05 09:22 48.51805 5.57945 35862 ft 481 kts 21°
2026-05-05 09:22 48.58075 5.61383 35865 ft 480 kts 21°
2026-05-05 09:23 48.64349 5.64831 35857 ft 481 kts 21°
2026-05-05 09:23 48.70623 5.68286 35861 ft 480 kts 22°
2026-05-05 09:24 48.76932 5.71773 35838 ft 481 kts 21°
2026-05-05 09:24 48.80088 5.73522 35684 ft 484 kts 21°
2026-05-05 09:24 48.83231 5.75264 35509 ft 483 kts 21°
2026-05-05 09:24 48.86389 5.77013 35309 ft 483 kts 21°
2026-05-05 09:25 48.89505 5.78741 35107 ft 485 kts 21°
2026-05-05 09:25 48.92696 5.80513 34900 ft 486 kts 21°
2026-05-05 09:25 48.95847 5.82263 34633 ft 487 kts 21°
2026-05-05 09:25 48.99009 5.84023 34360 ft 486 kts 21°
2026-05-05 09:26 49.02199 5.85803 34084 ft 483 kts 21°
2026-05-05 09:26 49.05335 5.87557 33817 ft 483 kts 21°
2026-05-05 09:26 49.08448 5.89298 33548 ft 481 kts 21°
2026-05-05 09:26 49.11591 5.91058 33270 ft 478 kts 21°
2026-05-05 09:27 49.14682 5.92792 32867 ft 472 kts 21°
2026-05-05 09:27 49.17734 5.94508 32348 ft 469 kts 21°
2026-05-05 09:27 49.20768 5.96215 31796 ft 466 kts 21°
2026-05-05 09:27 49.23813 5.97931 31231 ft 463 kts 21°
2026-05-05 09:28 49.26780 5.99605 30680 ft 460 kts 21°
2026-05-05 09:28 49.29770 6.01295 30102 ft 456 kts 21°
2026-05-05 09:28 49.32755 6.02987 29539 ft 453 kts 21°
2026-05-05 09:28 49.35666 6.04635 28988 ft 449 kts 21°
2026-05-05 09:29 49.38562 6.06280 28430 ft 446 kts 21°
2026-05-05 09:29 49.41463 6.07927 27875 ft 442 kts 21°
2026-05-05 09:29 49.44351 6.09521 27324 ft 439 kts 19°
2026-05-05 09:29 49.47229 6.10836 26774 ft 436 kts 14°
2026-05-05 09:30 49.50204 6.11646 26217 ft 432 kts
2026-05-05 09:30 49.53179 6.12007 25668 ft 429 kts
2026-05-05 09:30 49.56122 6.12141 25123 ft 425 kts
2026-05-05 09:30 49.59087 6.12194 24574 ft 421 kts
2026-05-05 09:31 49.61974 6.12225 24042 ft 417 kts
2026-05-05 09:31 49.64849 6.12257 23506 ft 414 kts 360°
2026-05-05 09:31 49.67728 6.12307 22981 ft 410 kts
2026-05-05 09:31 49.70536 6.12377 22488 ft 406 kts
2026-05-05 09:32 49.73322 6.12460 22210 ft 396 kts
2026-05-05 09:32 49.76064 6.12551 21954 ft 387 kts
2026-05-05 09:32 49.78699 6.12645 21692 ft 380 kts
2026-05-05 09:32 49.81322 6.12742 21176 ft 379 kts
2026-05-05 09:33 49.83963 6.12749 20693 ft 377 kts 358°
2026-05-05 09:33 49.86540 6.12375 20190 ft 375 kts 349°
2026-05-05 09:33 49.89043 6.11424 19739 ft 371 kts 342°
2026-05-05 09:33 49.91507 6.10141 19249 ft 369 kts 339°
2026-05-05 09:34 49.93879 6.08762 18816 ft 366 kts 338°
2026-05-05 09:34 49.96240 6.07341 18377 ft 363 kts 338°
2026-05-05 09:34 49.98560 6.05937 17957 ft 360 kts 338°
2026-05-05 09:34 50.00908 6.04536 17347 ft 367 kts 339°
2026-05-05 09:35 50.03310 6.03127 16645 ft 375 kts 339°
2026-05-05 09:35 50.08179 6.00295 15450 ft 374 kts 339°
2026-05-05 09:35 50.10631 5.98876 14680 ft 378 kts 339°
2026-05-05 09:36 50.13069 5.97471 13901 ft 376 kts 340°
2026-05-05 09:36 50.15522 5.96070 13013 ft 374 kts 340°
2026-05-05 09:36 50.17942 5.94689 12403 ft 365 kts 340°
2026-05-05 09:36 50.20296 5.93342 11623 ft 361 kts 340°
2026-05-05 09:37 50.22607 5.92014 10968 ft 352 kts 340°
2026-05-05 09:37 50.24866 5.90823 10582 ft 337 kts 344°
2026-05-05 09:37 50.27070 5.89940 10342 ft 319 kts 347°
2026-05-05 09:37 50.29189 5.89211 10173 ft 301 kts 348°
2026-05-05 09:38 50.31161 5.88538 10032 ft 286 kts 348°
2026-05-05 09:38 50.33086 5.87853 9727 ft 283 kts 347°
2026-05-05 09:38 50.35012 5.87136 9384 ft 281 kts 347°
2026-05-05 09:38 50.36893 5.86412 9061 ft 278 kts 346°
2026-05-05 09:39 50.38741 5.85686 8724 ft 277 kts 346°
2026-05-05 09:39 50.40613 5.84949 8381 ft 275 kts 346°
2026-05-05 09:39 50.42466 5.84221 8041 ft 273 kts 346°
2026-05-05 09:39 50.44297 5.83504 7707 ft 271 kts 347°
2026-05-05 09:40 50.46116 5.82793 7377 ft 270 kts 347°
2026-05-05 09:40 50.47938 5.82080 7045 ft 268 kts 347°
2026-05-05 09:40 50.49735 5.81377 6712 ft 266 kts 347°
2026-05-05 09:40 50.51516 5.80679 6385 ft 265 kts 347°
2026-05-05 09:41 50.53298 5.79981 6060 ft 263 kts 347°
2026-05-05 09:41 50.55062 5.79287 5741 ft 261 kts 347°
2026-05-05 09:41 50.56812 5.78599 5411 ft 259 kts 347°
2026-05-05 09:41 50.58551 5.77917 5087 ft 257 kts 347°
2026-05-05 09:42 50.60257 5.77251 4854 ft 252 kts 347°
2026-05-05 09:42 50.61968 5.76581 4576 ft 255 kts 347°
2026-05-05 09:42 50.63692 5.75905 4267 ft 255 kts 347°
2026-05-05 09:42 50.65380 5.75239 4138 ft 245 kts 347°
2026-05-05 09:43 50.67002 5.74597 4071 ft 232 kts 347°
2026-05-05 09:43 50.68512 5.74002 4008 ft 220 kts 348°
2026-05-05 09:43 50.69957 5.73350 3929 ft 210 kts 340°
2026-05-05 09:43 50.71152 5.72138 3761 ft 205 kts 319°
2026-05-05 09:44 50.72125 5.70511 3522 ft 201 kts 315°
2026-05-05 09:44 50.73056 5.68951 3432 ft 189 kts 316°
2026-05-05 09:44 50.73946 5.67540 3384 ft 177 kts 317°
2026-05-05 09:44 50.74780 5.66100 3340 ft 177 kts 306°
2026-05-05 09:45 50.75144 5.64245 3292 ft 182 kts 270°
2026-05-05 09:45 50.74747 5.62380 3191 ft 182 kts 232°
2026-05-05 09:45 50.73902 5.60899 3097 ft 182 kts 227°
2026-05-05 09:45 50.73059 5.59410 2961 ft 183 kts 227°
2026-05-05 09:46 50.72195 5.57955 2698 ft 184 kts 226°
2026-05-05 09:46 50.71301 5.56493 2441 ft 184 kts 226°
2026-05-05 09:46 50.70414 5.55062 2193 ft 179 kts 226°
2026-05-05 09:46 50.69566 5.53701 1954 ft 168 kts 225°
2026-05-05 09:47 50.68780 5.52444 1727 ft 160 kts 225°
2026-05-05 09:47 50.68013 5.51225 1520 ft 155 kts 225°
2026-05-05 09:47 50.67256 5.50042 1322 ft 151 kts 225°
2026-05-05 09:47 50.66514 5.48883 1108 ft 151 kts 226°
2026-05-05 09:48 50.65796 5.47706 924 ft 149 kts 227°
2026-05-05 09:48 50.65071 5.46517 698 ft 150 kts 226°
2026-05-05 09:48 50.64355 5.45386 588 ft 141 kts 226°
2026-05-05 09:48 50.63782 5.44479 598 ft 89 kts 225°
2026-05-05 09:49 50.63469 5.43983 610 ft 34 kts 226°
2026-05-05 09:49 50.63428 5.43803 614 ft 6 kts 311°
2026-05-05 09:49 50.63459 5.43759 614 ft 5 kts 317°
2026-05-05 09:49 50.63486 5.43715 615 ft 7 kts 313°
2026-05-05 09:50 50.63542 5.43624 614 ft 15 kts 316°
2026-05-05 09:50 50.63636 5.43485 613 ft 19 kts 311°
2026-05-05 09:50 50.63597 5.43330 616 ft 15 kts 224°
2026-05-05 09:50 50.63528 5.43215 620 ft 12 kts 225°
2026-05-05 09:51 50.63479 5.43130 622 ft 9 kts 240°
2026-05-05 09:51 50.63451 5.43017 621 ft 11 kts 250°
2026-05-05 09:51 50.63422 5.42894 619 ft 12 kts 251°
2026-05-05 09:51 50.63401 5.42795 615 ft 4 kts 261°
2026-05-05 09:52 50.63438 5.42746 611 ft 9 kts 348°
2026-05-05 09:52 50.63476 5.42731 610 ft 1 kts 346°
2026-05-05 09:52 50.63477 5.42731 610 ft 0 kts 346°